[[{"header":{"parameterUnit":"m.s-1","parameterCategory":1,"la1":30.2992,"la2":30.254,"lo1":-89.0895,"lo2":-89.0443,"dy":0.0025,"dx":0.0025,"nx":19,"ny":19,"refTime":"2026-05-18T03:00:00:Z","depth":0,"parameterNumber":2,"parameterNumberName":"U-component_of_WINDS"},"data":[0,0,0,-5.8272,-5.8274,-5.833,-5.833,-5.8426,-5.8427,0,0,0,0,0,0,0,0,0,0,0,-5.827,-5.8271,-5.8272,-5.8274,-5.833,-5.833,-5.8426,-5.8427,0,0,0,0,0,0,0,0,0,0,0,-5.827,-5.8271,-5.8273,-5.8274,-5.833,-5.833,-5.8425,-5.8374,0,0,0,0,0,0,0,0,0,0,-5.8316,-5.8328,-5.8271,-5.8273,-5.8274,-5.833,-5.833,-5.8371,-5.8378,-5.8411,0,-5.8445,0,-5.8438,-5.8435,-5.8435,0,0,0,-5.8262,-5.8323,-5.8325,-5.8273,-5.8275,-5.833,-5.8301,-5.8375,-5.8382,-5.8419,-5.8446,-5.8449,-5.8439,-5.8436,-5.8436,-5.8668,-5.867,0,0,-5.8259,-5.8288,-5.8321,-5.8331,-5.8324,-5.83,-5.8303,-5.8378,-5.8409,-5.8446,-5.8451,-5.8441,-5.8437,-5.8437,-5.8666,-5.8668,0,0,0,-5.8258,-5.8286,-5.8286,-5.8327,-5.8336,-5.8302,-5.8306,-5.8406,-5.8403,-5.8451,-5.8442,-5.8437,-5.8439,-5.8665,-5.8667,-5.8774,0,0,0,-5.8256,-5.8285,-5.8285,-5.8303,-5.8335,-5.8372,-5.8332,-5.8398,-5.8406,-5.8442,-5.8437,-5.844,-5.8663,-5.8666,-5.8767,-5.8818,0,0,0,-5.8261,-5.8286,-5.8299,-5.8305,-5.833,-5.837,-5.8371,-5.8399,-5.8401,-5.8436,-5.844,-5.8662,-5.8665,-5.8761,-5.8808,-5.8887,0,0,0,-5.8275,-5.8393,-5.8302,-5.8429,-5.833,-5.8436,-5.837,-5.8448,-5.8491,-5.8438,-5.8663,-5.8667,-5.8759,-5.8802,-5.888,-5.8956,-5.8991,0,0,-5.8439,-5.8414,-5.8487,-5.8407,-5.8537,-5.8425,-5.8571,-5.8583,-5.856,-5.8633,-5.8638,-5.8769,-5.8807,-5.8885,-5.9181,-5.9209,0,0,0,-5.8548,-5.8601,-5.8629,-5.8672,-5.8685,-5.87,-5.8687,-5.8692,-5.8753,-5.8604,-5.8819,-5.8841,-5.8885,-5.892,-5.8944,-5.8979,-5.8685,-5.8685,-5.8684,-5.8818,-5.8784,-5.8903,-5.8876,-5.8919,-5.8905,-5.8936,-5.894,-5.8892,-5.8944,-5.8964,-5.9148,-5.919,-5.9208,-5.9246,-5.9004,-5.9005,-5.9005,-5.9005,-5.9053,-5.9122,-5.9058,-5.915,-5.9113,-5.919,-5.9183,-5.9147,-5.9212,-5.913,-5.9167,-5.9077,-5.924,-5.9271,-5.9013,-5.9012,-5.9011,-5.901,-5.9009,-5.9224,-5.9251,-5.9256,-5.9316,-5.9366,-5.9335,-5.9402,-5.9367,-5.9334,-5.9371,-5.9388,-5.9386,-5.9378,-5.9383,-5.9383,-5.9384,-5.9384,-5.9385,-5.9385,-5.9398,-5.94,-5.9461,-5.9487,-5.9511,-5.9537,-5.9528,-5.955,-5.9565,-5.9534,-5.9534,-5.948,-5.9263,-5.9208,-5.9395,-5.9393,-5.9392,-5.9391,-5.939,-5.9643,-5.9583,-5.9676,-5.97,-5.9729,-5.9781,-5.9737,-5.9785,-5.9799,-5.9833,-5.9773,-5.9619,-5.9589,-5.957,-5.9523,-5.9781,-5.9781,-5.9781,-5.9781,-5.9785,-5.9768,-5.9856,-5.9897,-5.9933,-5.9904,-6.001,-6.0006,-5.999,-5.9996,-5.9955,-5.9892,-5.9874,-5.9855,-5.9829,-5.9785,-6.0104,-6.0104,-6.0104,-5.9933,-5.9919,-6.0015,-6.0001,-6.0022,-6.004,-6.0139,-6.0189,-6.0159,-6.0117,-6.0,-5.9987,-5.9884,-5.9853,-5.9804,-5.9765,-5.9684,0,0]},{"header":{"parameterUnit":"m.s-1","parameterCategory":1,"la1":30.2992,"la2":30.254,"lo1":-89.0895,"lo2":-89.0443,"dy":0.0025,"dx":0.0025,"nx":19,"ny":19,"refTime":"2026-05-18T03:00:00:Z","depth":0,"parameterNumber":3,"parameterNumberName":"V-component_of_WINDS"},"data":[0,0,0,3.6274,3.6276,3.6366,3.6367,3.6453,3.6454,0,0,0,0,0,0,0,0,0,0,0,3.6232,3.6232,3.6274,3.6276,3.6366,3.6367,3.6453,3.6454,0,0,0,0,0,0,0,0,0,0,0,3.6232,3.6232,3.6233,3.6276,3.6366,3.6367,3.6453,3.6394,0,0,0,0,0,0,0,0,0,0,3.6311,3.6259,3.6232,3.6233,3.6277,3.6366,3.6367,3.6392,3.6398,3.6401,0,3.6401,0,3.6429,3.6458,3.6458,0,0,0,3.6286,3.6253,3.6292,3.6233,3.6277,3.6366,3.6328,3.6396,3.6402,3.6408,3.6402,3.6406,3.643,3.6458,3.6458,3.6444,3.6444,0,0,3.6281,3.624,3.6287,3.6296,3.6283,3.6325,3.6331,3.64,3.639,3.6403,3.6409,3.6432,3.6459,3.6459,3.6445,3.6444,0,0,0,3.626,3.6235,3.6273,3.6291,3.631,3.6328,3.6334,3.6387,3.6403,3.641,3.6433,3.6459,3.646,3.6446,3.6445,3.6378,0,0,0,3.6258,3.6223,3.627,3.6245,3.6308,3.635,3.6319,3.6398,3.6407,3.6432,3.6459,3.646,3.6446,3.6445,3.6381,3.6353,0,0,0,3.6231,3.622,3.6229,3.6243,3.6281,3.635,3.637,3.6401,3.642,3.6458,3.646,3.6447,3.6445,3.6384,3.6358,3.6338,0,0,0,3.6191,3.6166,3.6227,3.6208,3.628,3.6309,3.637,3.6393,3.6417,3.6459,3.6446,3.6445,3.6385,3.6361,3.634,3.6313,3.6298,0,0,3.6136,3.6157,3.615,3.6207,3.6215,3.6298,3.6296,3.6356,3.6396,3.6425,3.6426,3.638,3.6358,3.6338,3.6228,3.6216,0,0,0,3.6118,3.6112,3.6123,3.6146,3.6194,3.6232,3.6298,3.632,3.6348,3.6404,3.6369,3.6357,3.6347,3.6336,3.6325,3.632,3.6438,3.6438,3.6438,3.5979,3.6035,3.6026,3.6092,3.6113,3.6183,3.6205,3.6247,3.6294,3.6285,3.6294,3.6221,3.6206,3.6199,3.6192,3.6284,3.6284,3.6284,3.6283,3.5903,3.5904,3.5971,3.5986,3.6044,3.6057,3.6122,3.6156,3.6175,3.6218,3.6212,3.6255,3.6184,3.6181,3.6279,3.628,3.628,3.6281,3.6281,3.5818,3.5829,3.5859,3.5899,3.5923,3.5991,3.6007,3.6059,3.6107,3.6101,3.6116,3.6118,3.6125,3.6105,3.6105,3.6104,3.6104,3.6104,3.6104,3.5719,3.5755,3.5764,3.5814,3.5836,3.5872,3.5942,3.5964,3.6002,3.6038,3.6039,3.6087,3.6167,3.6186,3.61,3.6101,3.6101,3.6102,3.6102,3.5622,3.5653,3.5666,3.5688,3.5752,3.5772,3.5839,3.5881,3.5907,3.5913,3.5963,3.6014,3.6039,3.6048,3.6064,3.5952,3.5952,3.5952,3.5952,3.555,3.5569,3.5596,3.5628,3.5666,3.5729,3.574,3.5794,3.5854,3.5873,3.5897,3.5923,3.593,3.5951,3.5962,3.5977,3.5846,3.5846,3.5846,3.5494,3.5519,3.552,3.5583,3.5636,3.568,3.5693,3.5726,3.58,3.5842,3.589,3.5894,3.5936,3.5947,3.5989,3.6005,3.6035,0,0]}]]